TimePST,TemperatureF,Dew PointF,Humidity,Sea Level PressureIn,VisibilityMPH,Wind Direction,Wind SpeedMPH,Gust SpeedMPH,PrecipitationIn,Events,Conditions,WindDirDegrees,DateUTC
12:55 AM,23.0,23.0,100,30.21,2.5,Calm,Calm,-,N/A,,Clear,0,2011-12-15 08:55:00
1:15 AM,23.0,21.2,93,30.21,2.5,Calm,Calm,-,N/A,,Clear,0,2011-12-15 09:15:00
1:35 AM,21.2,19.4,93,30.20,3.0,Calm,Calm,-,N/A,,Clear,0,2011-12-15 09:35:00
1:55 AM,23.0,19.4,86,30.20,4.0,ESE,5.8,-,N/A,,Clear,120,2011-12-15 09:55:00
2:15 AM,19.4,19.4,100,30.19,4.0,Calm,Calm,-,N/A,,Clear,0,2011-12-15 10:15:00
2:35 AM,21.2,19.4,93,30.19,3.0,Calm,Calm,-,N/A,,Clear,0,2011-12-15 10:35:00
2:55 AM,21.2,19.4,93,30.17,3.0,ESE,5.8,-,N/A,,Clear,120,2011-12-15 10:55:00
3:15 AM,23.0,21.2,93,30.15,4.0,NNE,3.5,-,N/A,,Clear,30,2011-12-15 11:15:00
3:35 AM,24.8,23.0,93,30.16,5.0,Calm,Calm,-,N/A,,Clear,0,2011-12-15 11:35:00
3:55 AM,24.8,23.0,93,30.16,4.0,Calm,Calm,-,N/A,,Clear,0,2011-12-15 11:55:00
4:15 AM,24.8,23.0,93,30.15,5.0,Calm,Calm,-,N/A,,Clear,0,2011-12-15 12:15:00
4:35 AM,30.2,26.6,86,30.15,8.0,NW,18.4,21.9,N/A,,Clear,320,2011-12-15 12:35:00
4:55 AM,32.0,26.6,80,30.16,7.0,West,16.1,21.9,N/A,,Clear,270,2011-12-15 12:55:00
5:15 AM,32.0,28.4,87,30.16,5.0,NW,17.3,24.2,N/A,,Clear,310,2011-12-15 13:15:00
5:35 AM,32.0,30.2,93,30.17,3.0,West,11.5,-,N/A,,Clear,280,2011-12-15 13:35:00
5:55 AM,32.0,32.0,100,30.16,2.5,WNW,11.5,-,N/A,,Clear,290,2011-12-15 13:55:00
6:15 AM,32.0,32.0,100,30.16,2.0,West,6.9,-,N/A,,Clear,280,2011-12-15 14:15:00
6:35 AM,32.0,32.0,100,30.16,2.0,West,6.9,-,N/A,,Clear,280,2011-12-15 14:35:00
6:55 AM,32.0,30.2,93,30.15,1.0,WNW,8.1,-,N/A,,Clear,290,2011-12-15 14:55:00
7:15 AM,32.0,32.0,100,30.14,1.0,NW,11.5,-,N/A,,Clear,310,2011-12-15 15:15:00
7:35 AM,32.0,30.2,93,30.14,1.0,NNW,9.2,-,N/A,,Clear,330,2011-12-15 15:35:00
7:55 AM,32.0,32.0,100,30.13,1.0,NW,6.9,-,N/A,,Clear,310,2011-12-15 15:55:00
8:15 AM,35.6,32.0,87,30.14,1.5,NW,8.1,-,N/A,,Clear,310,2011-12-15 16:15:00
8:35 AM,35.6,32.0,87,30.14,2.5,NW,6.9,-,N/A,,Clear,310,2011-12-15 16:35:00
9:15 AM,39.2,32.0,75,30.14,4.0,NW,8.1,-,N/A,,Haze,320,2011-12-15 17:15:00
9:35 AM,39.2,30.2,70,30.14,4.0,WNW,10.4,-,N/A,,Haze,300,2011-12-15 17:35:00
9:55 AM,41.0,30.2,65,30.13,5.0,WNW,11.5,-,N/A,,Haze,290,2011-12-15 17:55:00
10:15 AM,41.0,28.4,61,30.13,5.0,WNW,11.5,17.3,N/A,,Haze,300,2011-12-15 18:15:00
10:35 AM,41.0,30.2,65,30.12,5.0,NW,12.7,18.4,N/A,,Haze,320,2011-12-15 18:35:00
10:55 AM,41.0,26.6,57,30.11,6.0,NW,12.7,-,N/A,,Haze,310,2011-12-15 18:55:00
11:15 AM,42.8,28.4,57,30.09,6.0,NW,17.3,24.2,N/A,,Haze,320,2011-12-15 19:15:00
11:35 AM,41.0,26.6,57,30.09,6.0,NW,17.3,23.0,N/A,,Haze,320,2011-12-15 19:35:00
11:55 AM,41.0,28.4,61,30.09,5.0,NW,15.0,19.6,N/A,,Haze,320,2011-12-15 19:55:00
12:35 PM,42.8,26.6,53,30.08,7.0,NW,15.0,20.7,N/A,,Clear,320,2011-12-15 20:35:00
12:55 PM,42.8,24.8,49,30.08,8.0,WNW,17.3,21.9,N/A,,Clear,300,2011-12-15 20:55:00
1:15 PM,41.0,28.4,61,30.08,7.0,NW,16.1,23.0,N/A,,Clear,310,2011-12-15 21:15:00
1:35 PM,41.0,26.6,57,30.08,6.0,WNW,13.8,18.4,N/A,,Haze,300,2011-12-15 21:35:00
1:55 PM,41.0,26.6,57,30.08,7.0,NW,12.7,-,N/A,,Clear,310,2011-12-15 21:55:00
2:15 PM,41.0,28.4,61,30.08,5.0,WNW,9.2,17.3,N/A,,Haze,290,2011-12-15 22:15:00
2:35 PM,39.2,28.4,65,30.08,5.0,NW,11.5,-,N/A,,Haze,320,2011-12-15 22:35:00
2:55 PM,39.2,28.4,65,30.08,5.0,NW,8.1,-,N/A,,Haze,320,2011-12-15 22:55:00
3:15 PM,39.2,30.2,70,30.08,4.0,NW,9.2,-,N/A,,Haze,310,2011-12-15 23:15:00
3:35 PM,39.2,32.0,75,30.09,3.0,NW,10.4,-,N/A,,Haze,310,2011-12-15 23:35:00
3:55 PM,39.2,32.0,75,30.09,3.0,WNW,8.1,-,N/A,,Haze,300,2011-12-15 23:55:00
4:15 PM,39.2,32.0,75,30.10,3.0,NW,5.8,-,N/A,,Haze,320,2011-12-16 00:15:00
4:35 PM,35.6,32.0,87,30.10,0.8,Calm,Calm,-,0.01,Rain,Light Rain,0,2011-12-16 00:35:00
4:55 PM,35.6,32.0,87,30.11,1.2,West,3.5,-,0.02,Rain,Light Rain,280,2011-12-16 00:55:00
5:15 PM,33.8,32.0,93,30.11,2.5,WSW,4.6,-,N/A,,Clear,250,2011-12-16 01:15:00
5:35 PM,33.8,32.0,93,30.11,3.0,West,3.5,-,N/A,,Clear,270,2011-12-16 01:35:00
5:55 PM,32.0,32.0,100,30.11,2.0,West,4.6,-,N/A,,Clear,270,2011-12-16 01:55:00
6:15 PM,32.0,32.0,100,30.11,2.0,WNW,4.6,-,N/A,,Clear,300,2011-12-16 02:15:00
6:35 PM,32.0,32.0,100,30.12,1.2,Calm,Calm,-,N/A,,Clear,0,2011-12-16 02:35:00
6:55 PM,32.0,32.0,100,30.13,1.2,West,3.5,-,N/A,,Clear,270,2011-12-16 02:55:00
7:15 PM,32.0,32.0,100,30.13,1.0,NW,5.8,-,N/A,,Clear,310,2011-12-16 03:15:00
7:35 PM,32.0,32.0,100,30.14,1.0,WNW,4.6,-,N/A,,Mostly Cloudy,290,2011-12-16 03:35:00
8:15 PM,32.0,32.0,100,30.14,1.2,Calm,Calm,-,N/A,,Overcast,0,2011-12-16 04:15:00
8:35 PM,32.0,32.0,100,30.15,1.2,West,4.6,-,N/A,,Mostly Cloudy,270,2011-12-16 04:35:00
8:55 PM,32.0,32.0,100,30.16,1.5,WSW,3.5,-,N/A,,Clear,250,2011-12-16 04:55:00
9:15 PM,32.0,32.0,100,30.16,1.5,West,3.5,-,N/A,,Scattered Clouds,260,2011-12-16 05:15:00
9:35 PM,32.0,32.0,100,30.16,1.2,West,6.9,-,N/A,,Mostly Cloudy,260,2011-12-16 05:35:00
9:55 PM,32.0,32.0,100,30.16,1.5,SW,3.5,-,N/A,,Mostly Cloudy,230,2011-12-16 05:55:00
10:15 PM,32.0,32.0,100,30.17,1.8,West,4.6,-,N/A,,Clear,260,2011-12-16 06:15:00
10:35 PM,32.0,32.0,100,30.17,2.0,West,4.6,-,N/A,,Clear,280,2011-12-16 06:35:00
10:55 PM,32.0,32.0,100,30.17,2.0,West,4.6,-,N/A,,Clear,260,2011-12-16 06:55:00
11:15 PM,32.0,32.0,100,30.17,2.0,Calm,Calm,-,N/A,,Clear,0,2011-12-16 07:15:00
11:35 PM,32.0,32.0,100,30.17,2.0,West,3.5,-,N/A,,Clear,260,2011-12-16 07:35:00
11:55 PM,32.0,32.0,100,30.16,1.5,WNW,3.5,-,N/A,,Clear,290,2011-12-16 07:55:00